Year,Month,Day,Hour,Minute,Value (Times are PST for windspeed in km/hr)
2009,06,24,00,00,0.00
2009,06,24,00,01,0.00
2009,06,24,00,02,0.00
2009,06,24,00,03,0.00
2009,06,24,00,04,0.00
2009,06,24,00,05,0.00
2009,06,24,00,06,0.00
2009,06,24,00,07,0.00
2009,06,24,00,08,0.00
2009,06,24,00,09,0.00
2009,06,24,00,10,0.20
2009,06,24,00,11,0.00
2009,06,24,00,12,0.00
2009,06,24,00,13,0.00
2009,06,24,00,14,0.10
2009,06,24,00,15,0.00
2009,06,24,00,16,0.00
2009,06,24,00,17,0.00
2009,06,24,00,18,0.00
2009,06,24,00,19,0.00
2009,06,24,00,20,0.00
2009,06,24,00,21,0.00
2009,06,24,00,22,0.00
2009,06,24,00,23,0.00
2009,06,24,00,24,0.00
2009,06,24,00,25,0.00
2009,06,24,00,26,0.00
2009,06,24,00,27,0.00
2009,06,24,00,28,0.00
2009,06,24,00,29,0.00
2009,06,24,00,30,0.00
2009,06,24,00,31,0.00
2009,06,24,00,32,0.20
2009,06,24,00,33,0.00
2009,06,24,00,34,0.00
2009,06,24,00,35,0.00
2009,06,24,00,36,0.10
2009,06,24,00,37,0.10
2009,06,24,00,38,0.50
2009,06,24,00,39,0.10
2009,06,24,00,40,1.60
2009,06,24,00,41,0.10
2009,06,24,00,42,0.30
2009,06,24,00,43,0.50
2009,06,24,00,44,1.60
2009,06,24,00,45,0.10
2009,06,24,00,46,0.30
2009,06,24,00,47,0.00
2009,06,24,00,48,1.00
2009,06,24,00,49,0.10
2009,06,24,00,50,0.30
2009,06,24,00,51,0.00
2009,06,24,00,52,0.00
2009,06,24,00,53,0.00
2009,06,24,00,54,1.20
2009,06,24,00,55,0.20
2009,06,24,00,56,0.50
2009,06,24,00,57,0.20
2009,06,24,00,58,0.00
2009,06,24,00,59,0.00
2009,06,24,01,00,0.20
2009,06,24,01,01,0.10
2009,06,24,01,02,0.10
2009,06,24,01,03,0.00
2009,06,24,01,04,0.00
2009,06,24,01,05,0.00
2009,06,24,01,06,0.00
2009,06,24,01,07,0.00
2009,06,24,01,08,0.00
2009,06,24,01,09,0.00
2009,06,24,01,10,0.00
2009,06,24,01,11,0.00
2009,06,24,01,12,0.00
2009,06,24,01,13,0.00
2009,06,24,01,14,0.00
2009,06,24,01,15,0.00
2009,06,24,01,16,0.00
2009,06,24,01,17,0.00
2009,06,24,01,18,0.00
2009,06,24,01,19,0.00
2009,06,24,01,20,0.00
2009,06,24,01,21,0.00
2009,06,24,01,22,0.00
2009,06,24,01,23,0.00
2009,06,24,01,24,0.00
2009,06,24,01,25,0.00
2009,06,24,01,26,0.00
2009,06,24,01,27,0.00
2009,06,24,01,28,0.00
2009,06,24,01,29,0.00
2009,06,24,01,30,0.00
2009,06,24,01,31,0.20
2009,06,24,01,32,0.00
2009,06,24,01,33,0.00
2009,06,24,01,34,0.00
2009,06,24,01,35,0.00
2009,06,24,01,36,0.00
2009,06,24,01,37,0.00
2009,06,24,01,38,0.10
2009,06,24,01,39,0.90
2009,06,24,01,40,0.00
2009,06,24,01,41,0.00
2009,06,24,01,42,0.20
2009,06,24,01,43,0.10
2009,06,24,01,44,0.00
2009,06,24,01,45,0.00
2009,06,24,01,46,0.30
2009,06,24,01,47,1.80
2009,06,24,01,48,0.00
2009,06,24,01,49,0.10
2009,06,24,01,50,0.10
2009,06,24,01,51,0.00
2009,06,24,01,52,0.70
2009,06,24,01,53,0.00
2009,06,24,01,54,0.00
2009,06,24,01,55,0.10
2009,06,24,01,56,1.40
2009,06,24,01,57,0.20
2009,06,24,01,58,0.50
2009,06,24,01,59,0.00
2009,06,24,02,00,0.00
2009,06,24,02,01,0.00
2009,06,24,02,02,0.00
2009,06,24,02,03,0.00
2009,06,24,02,04,0.00
2009,06,24,02,05,0.00
2009,06,24,02,06,0.00
2009,06,24,02,07,0.10
2009,06,24,02,08,0.40
2009,06,24,02,09,0.00
2009,06,24,02,10,0.00
2009,06,24,02,11,0.00
2009,06,24,02,12,0.00
2009,06,24,02,13,0.00
2009,06,24,02,14,0.00
2009,06,24,02,15,0.10
2009,06,24,02,16,0.00
2009,06,24,02,17,0.00
2009,06,24,02,18,0.00
2009,06,24,02,19,0.00
2009,06,24,02,20,0.20
2009,06,24,02,21,0.00
2009,06,24,02,22,0.10
2009,06,24,02,23,0.00
2009,06,24,02,24,0.10
2009,06,24,02,25,0.00
2009,06,24,02,26,0.00
2009,06,24,02,27,0.00
2009,06,24,02,28,0.00
2009,06,24,02,29,0.00
2009,06,24,02,30,0.00
2009,06,24,02,31,0.00
2009,06,24,02,32,0.00
2009,06,24,02,33,0.00
2009,06,24,02,34,0.00
2009,06,24,02,35,0.00
2009,06,24,02,36,0.00
2009,06,24,02,37,0.00
2009,06,24,02,38,0.00
2009,06,24,02,39,0.00
2009,06,24,02,40,0.00
2009,06,24,02,41,0.00
2009,06,24,02,42,0.00
2009,06,24,02,43,0.00
2009,06,24,02,44,0.00
2009,06,24,02,45,0.00
2009,06,24,02,46,0.00
2009,06,24,02,47,0.00
2009,06,24,02,48,0.00
2009,06,24,02,49,0.00
2009,06,24,02,50,0.00
2009,06,24,02,51,0.00
2009,06,24,02,52,0.00
2009,06,24,02,53,0.00
2009,06,24,02,54,0.00
2009,06,24,02,55,0.80
2009,06,24,02,56,0.60
2009,06,24,02,57,0.00
2009,06,24,02,58,0.00
2009,06,24,02,59,0.00
2009,06,24,03,00,0.00
2009,06,24,03,01,0.00
2009,06,24,03,02,0.00
2009,06,24,03,03,0.00
2009,06,24,03,04,0.00
2009,06,24,03,05,0.00
2009,06,24,03,06,0.00
2009,06,24,03,07,0.00
2009,06,24,03,08,0.00
2009,06,24,03,09,0.20
2009,06,24,03,10,0.10
2009,06,24,03,11,0.00
2009,06,24,03,12,0.00
2009,06,24,03,13,0.00
2009,06,24,03,14,0.00
2009,06,24,03,15,0.00
2009,06,24,03,16,0.00
2009,06,24,03,17,0.00
2009,06,24,03,18,0.00
2009,06,24,03,19,0.00
2009,06,24,03,20,0.00
2009,06,24,03,21,0.00
2009,06,24,03,22,0.00
2009,06,24,03,23,0.00
2009,06,24,03,24,0.00
2009,06,24,03,25,0.00
2009,06,24,03,26,0.00
2009,06,24,03,27,0.00
2009,06,24,03,28,0.00
2009,06,24,03,29,0.00
2009,06,24,03,30,0.00
2009,06,24,03,31,0.00
2009,06,24,03,32,0.00
2009,06,24,03,33,0.00
2009,06,24,03,34,0.00
2009,06,24,03,35,0.00
2009,06,24,03,36,0.10
2009,06,24,03,37,0.10
2009,06,24,03,38,0.00
2009,06,24,03,39,0.00
2009,06,24,03,40,0.20
2009,06,24,03,41,0.00
2009,06,24,03,42,0.00
2009,06,24,03,43,0.00
2009,06,24,03,44,0.00
2009,06,24,03,45,0.00
2009,06,24,03,46,0.00
2009,06,24,03,47,0.00
2009,06,24,03,48,0.00
2009,06,24,03,49,0.00
2009,06,24,03,50,0.00
2009,06,24,03,51,0.00
2009,06,24,03,52,0.00
2009,06,24,03,53,0.00
2009,06,24,03,54,0.10
2009,06,24,03,55,0.30
2009,06,24,03,56,2.80
2009,06,24,03,57,3.50
2009,06,24,03,58,4.40
2009,06,24,03,59,3.40
2009,06,24,04,00,0.30
2009,06,24,04,01,0.10
2009,06,24,04,02,0.90
2009,06,24,04,03,0.80
2009,06,24,04,04,0.50
2009,06,24,04,05,1.50
2009,06,24,04,06,0.70
2009,06,24,04,07,2.30
2009,06,24,04,08,1.60
2009,06,24,04,09,3.50
2009,06,24,04,10,4.20
2009,06,24,04,11,2.50
2009,06,24,04,12,0.10
2009,06,24,04,13,2.00
2009,06,24,04,14,2.70
2009,06,24,04,15,2.60
2009,06,24,04,16,3.10
2009,06,24,04,17,2.10
2009,06,24,04,18,2.60
2009,06,24,04,19,3.50
2009,06,24,04,20,4.20
2009,06,24,04,21,3.00
2009,06,24,04,22,1.40
2009,06,24,04,23,2.50
2009,06,24,04,24,1.50
2009,06,24,04,25,3.20
2009,06,24,04,26,2.30
2009,06,24,04,27,2.70
2009,06,24,04,28,1.80
2009,06,24,04,29,1.80
2009,06,24,04,30,2.30
2009,06,24,04,31,2.50
2009,06,24,04,32,3.20
2009,06,24,04,33,1.40
2009,06,24,04,34,0.20
2009,06,24,04,35,0.30
2009,06,24,04,36,0.50
2009,06,24,04,37,0.10
2009,06,24,04,38,1.60
2009,06,24,04,39,0.00
2009,06,24,04,40,3.40
2009,06,24,04,41,0.40
2009,06,24,04,42,2.10
2009,06,24,04,43,2.70
2009,06,24,04,44,2.20
2009,06,24,04,45,1.70
2009,06,24,04,46,2.60
2009,06,24,04,47,3.30
2009,06,24,04,48,1.30
2009,06,24,04,49,1.90
2009,06,24,04,50,0.10
2009,06,24,04,51,0.00
2009,06,24,04,52,0.00
2009,06,24,04,53,0.00
2009,06,24,04,54,0.00
2009,06,24,04,55,0.00
2009,06,24,04,56,0.00
2009,06,24,04,57,0.00
2009,06,24,04,58,0.00
2009,06,24,04,59,0.00
2009,06,24,05,00,0.00
2009,06,24,05,01,0.00
2009,06,24,05,02,0.50
2009,06,24,05,03,1.70
2009,06,24,05,04,2.70
2009,06,24,05,05,2.80
2009,06,24,05,06,1.10
2009,06,24,05,07,0.20
2009,06,24,05,08,0.90
2009,06,24,05,09,0.10
2009,06,24,05,10,0.20
2009,06,24,05,11,0.20
2009,06,24,05,12,0.10
2009,06,24,05,13,0.10
2009,06,24,05,14,1.70
2009,06,24,05,15,2.40
2009,06,24,05,16,3.00
2009,06,24,05,17,3.60
2009,06,24,05,18,2.00
2009,06,24,05,19,2.50
2009,06,24,05,20,3.10
2009,06,24,05,21,3.00
2009,06,24,05,22,1.50
2009,06,24,05,23,0.50
2009,06,24,05,24,0.20
2009,06,24,05,25,2.10
2009,06,24,05,26,1.60
2009,06,24,05,27,1.50
2009,06,24,05,28,1.70
2009,06,24,05,29,0.60
2009,06,24,05,30,1.30
2009,06,24,05,31,0.10
2009,06,24,05,32,0.20
2009,06,24,05,33,0.30
2009,06,24,05,34,1.70
2009,06,24,05,35,0.50
2009,06,24,05,36,0.00
2009,06,24,05,37,0.20
2009,06,24,05,38,0.00
2009,06,24,05,39,0.00
2009,06,24,05,40,0.00
2009,06,24,05,41,0.00
2009,06,24,05,42,0.00
2009,06,24,05,43,0.90
2009,06,24,05,44,0.30
2009,06,24,05,45,0.10
2009,06,24,05,46,0.10
2009,06,24,05,47,0.00
2009,06,24,05,48,0.20
2009,06,24,05,49,0.30
2009,06,24,05,50,0.50
2009,06,24,05,51,3.00
2009,06,24,05,52,3.20
2009,06,24,05,53,0.50
2009,06,24,05,54,0.90
2009,06,24,05,55,1.90
2009,06,24,05,56,0.90
2009,06,24,05,57,1.00
2009,06,24,05,58,1.40
2009,06,24,05,59,0.90
2009,06,24,06,00,0.50
2009,06,24,06,01,1.30
2009,06,24,06,02,0.20
2009,06,24,06,03,0.20
2009,06,24,06,04,0.00
2009,06,24,06,05,0.00
2009,06,24,06,06,0.00
2009,06,24,06,07,0.00
2009,06,24,06,08,0.00
2009,06,24,06,09,0.00
2009,06,24,06,10,0.00
2009,06,24,06,11,0.00
2009,06,24,06,12,0.10
2009,06,24,06,13,0.10
2009,06,24,06,14,0.20
2009,06,24,06,15,0.80
2009,06,24,06,16,0.30
2009,06,24,06,17,0.10
2009,06,24,06,18,0.10
2009,06,24,06,19,0.50
2009,06,24,06,20,0.30
2009,06,24,06,21,0.10
2009,06,24,06,22,0.00
2009,06,24,06,23,0.20
2009,06,24,06,24,0.50
2009,06,24,06,25,1.00
2009,06,24,06,26,0.60
2009,06,24,06,27,0.00
2009,06,24,06,28,0.00
2009,06,24,06,29,0.00
2009,06,24,06,30,0.00
2009,06,24,06,31,1.40
2009,06,24,06,32,0.00
2009,06,24,06,33,0.40
2009,06,24,06,34,0.00
2009,06,24,06,35,0.00
2009,06,24,06,36,0.60
2009,06,24,06,37,0.20
2009,06,24,06,38,0.00
2009,06,24,06,39,0.00
2009,06,24,06,40,1.30
2009,06,24,06,41,1.60
2009,06,24,06,42,2.50
2009,06,24,06,43,3.20
2009,06,24,06,44,2.40
2009,06,24,06,45,1.90
2009,06,24,06,46,3.70
2009,06,24,06,47,2.40
2009,06,24,06,48,2.10
2009,06,24,06,49,3.30
2009,06,24,06,50,2.80
2009,06,24,06,51,0.90
2009,06,24,06,52,0.10
2009,06,24,06,53,0.00
2009,06,24,06,54,1.60
2009,06,24,06,55,1.80
2009,06,24,06,56,0.10
2009,06,24,06,57,0.20
2009,06,24,06,58,1.10
2009,06,24,06,59,0.00
2009,06,24,07,00,0.00
2009,06,24,07,01,0.30
2009,06,24,07,02,0.80
2009,06,24,07,03,0.00
2009,06,24,07,04,1.10
2009,06,24,07,05,3.20
2009,06,24,07,06,1.80
2009,06,24,07,07,1.90
2009,06,24,07,08,1.90
2009,06,24,07,09,2.10
2009,06,24,07,10,2.30
2009,06,24,07,11,3.10
2009,06,24,07,12,2.60
2009,06,24,07,13,2.40
2009,06,24,07,14,0.80
2009,06,24,07,15,0.20
2009,06,24,07,16,0.50
2009,06,24,07,17,1.20
2009,06,24,07,18,1.10
2009,06,24,07,19,0.10
2009,06,24,07,20,0.40
2009,06,24,07,21,1.30
2009,06,24,07,22,1.00
2009,06,24,07,23,0.80
2009,06,24,07,24,0.60
2009,06,24,07,25,0.30
2009,06,24,07,26,0.50
2009,06,24,07,27,0.10
2009,06,24,07,28,0.10
2009,06,24,07,29,1.00
2009,06,24,07,30,0.70
2009,06,24,07,31,3.40
2009,06,24,07,32,2.00
2009,06,24,07,33,3.90
2009,06,24,07,34,3.30
2009,06,24,07,35,2.50
2009,06,24,07,36,1.70
2009,06,24,07,37,4.70
2009,06,24,07,38,4.10
2009,06,24,07,39,5.80
2009,06,24,07,40,1.50
2009,06,24,07,41,1.70
2009,06,24,07,42,1.30
2009,06,24,07,43,1.40
2009,06,24,07,44,0.10
2009,06,24,07,45,0.00
2009,06,24,07,46,0.50
2009,06,24,07,47,1.40
2009,06,24,07,48,0.10
2009,06,24,07,49,0.20
2009,06,24,07,50,0.10
2009,06,24,07,51,0.00
2009,06,24,07,52,1.60
2009,06,24,07,53,3.20
2009,06,24,07,54,3.40
2009,06,24,07,55,0.90
2009,06,24,07,56,0.10
2009,06,24,07,57,0.00
2009,06,24,07,58,0.00
2009,06,24,07,59,0.00
2009,06,24,08,00,0.00
2009,06,24,08,01,0.00
2009,06,24,08,02,0.00
2009,06,24,08,03,0.00
2009,06,24,08,04,0.00
2009,06,24,08,05,0.00
2009,06,24,08,06,1.10
2009,06,24,08,07,0.50
2009,06,24,08,08,2.60
2009,06,24,08,09,3.80
2009,06,24,08,10,3.60
2009,06,24,08,11,2.90
2009,06,24,08,12,0.40
2009,06,24,08,13,0.20
2009,06,24,08,14,2.50
2009,06,24,08,15,1.80
2009,06,24,08,16,1.50
2009,06,24,08,17,1.40
2009,06,24,08,18,2.60
2009,06,24,08,19,2.60
2009,06,24,08,20,3.60
2009,06,24,08,21,4.00
2009,06,24,08,22,1.90
2009,06,24,08,23,2.80
2009,06,24,08,24,4.70
2009,06,24,08,25,2.70
2009,06,24,08,26,2.40
2009,06,24,08,27,3.60
2009,06,24,08,28,3.20
2009,06,24,08,29,1.50
2009,06,24,08,30,0.10
2009,06,24,08,31,0.00
2009,06,24,08,32,1.70
2009,06,24,08,33,5.00
2009,06,24,08,34,5.90
2009,06,24,08,35,2.90
2009,06,24,08,36,1.30
2009,06,24,08,37,3.90
2009,06,24,08,38,2.50
2009,06,24,08,39,4.30
2009,06,24,08,40,2.60
2009,06,24,08,41,4.70
2009,06,24,08,42,3.00
2009,06,24,08,43,1.90
2009,06,24,08,44,5.10
2009,06,24,08,45,2.70
2009,06,24,08,46,2.80
2009,06,24,08,47,4.20
2009,06,24,08,48,6.20
2009,06,24,08,49,5.50
2009,06,24,08,50,3.90
2009,06,24,08,51,6.00
2009,06,24,08,52,3.50
2009,06,24,08,53,5.70
2009,06,24,08,54,8.50
2009,06,24,08,55,8.30
2009,06,24,08,56,8.70
2009,06,24,08,57,8.20
2009,06,24,08,58,6.00
2009,06,24,08,59,6.90
2009,06,24,09,00,7.10
2009,06,24,09,01,8.10
2009,06,24,09,02,5.50
2009,06,24,09,03,6.40
2009,06,24,09,04,3.60
2009,06,24,09,05,5.70
2009,06,24,09,06,8.90
2009,06,24,09,07,7.50
2009,06,24,09,08,4.40
2009,06,24,09,09,6.20
2009,06,24,09,10,8.50
2009,06,24,09,11,9.10
2009,06,24,09,12,10.30
2009,06,24,09,13,11.00
2009,06,24,09,14,8.70
2009,06,24,09,15,9.20
2009,06,24,09,16,9.40
2009,06,24,09,17,4.20
2009,06,24,09,18,8.90
2009,06,24,09,19,9.70
2009,06,24,09,20,11.30
2009,06,24,09,21,9.20
2009,06,24,09,22,8.50
2009,06,24,09,23,6.90
2009,06,24,09,24,6.40
2009,06,24,09,25,9.50
2009,06,24,09,26,9.80
2009,06,24,09,27,7.70
2009,06,24,09,28,9.70
2009,06,24,09,29,5.30
2009,06,24,09,30,9.00
2009,06,24,09,31,5.80
2009,06,24,09,32,8.00
2009,06,24,09,33,8.70
2009,06,24,09,34,9.00
2009,06,24,09,35,8.00
2009,06,24,09,36,7.50
2009,06,24,09,37,6.40
2009,06,24,09,38,7.90
2009,06,24,09,39,6.80
2009,06,24,09,40,7.80
2009,06,24,09,41,8.40
2009,06,24,09,42,8.10
2009,06,24,09,43,8.60
2009,06,24,09,44,7.10
2009,06,24,09,45,4.30
2009,06,24,09,46,11.20
2009,06,24,09,47,12.10
2009,06,24,09,48,9.20
2009,06,24,09,49,4.40
2009,06,24,09,50,6.00
2009,06,24,09,51,10.40
2009,06,24,09,52,7.20
2009,06,24,09,53,11.60
2009,06,24,09,54,9.30
2009,06,24,09,55,6.40
2009,06,24,09,56,3.80
2009,06,24,09,57,8.70
2009,06,24,09,58,9.60
2009,06,24,09,59,9.00
2009,06,24,10,00,8.60
2009,06,24,10,01,7.90
2009,06,24,10,02,11.90
2009,06,24,10,03,5.40
2009,06,24,10,04,6.80
2009,06,24,10,05,10.60
2009,06,24,10,06,16.00
2009,06,24,10,07,7.50
2009,06,24,10,08,9.60
2009,06,24,10,09,7.60
2009,06,24,10,10,8.90
2009,06,24,10,11,9.60
2009,06,24,10,12,6.20
2009,06,24,10,13,10.30
2009,06,24,10,14,13.50
2009,06,24,10,15,8.70
2009,06,24,10,16,10.30
2009,06,24,10,17,10.20
2009,06,24,10,18,10.60
2009,06,24,10,19,12.00
2009,06,24,10,20,11.30
2009,06,24,10,21,19.40
2009,06,24,10,22,7.60
2009,06,24,10,23,12.20
2009,06,24,10,24,11.50
2009,06,24,10,25,12.10
2009,06,24,10,26,7.50
2009,06,24,10,27,12.60
2009,06,24,10,28,12.40
2009,06,24,10,29,12.80
2009,06,24,10,30,13.70
2009,06,24,10,31,10.90
2009,06,24,10,32,15.10
2009,06,24,10,33,10.50
2009,06,24,10,34,12.20
2009,06,24,10,35,14.70
2009,06,24,10,36,17.00
2009,06,24,10,37,12.30
2009,06,24,10,38,6.20
2009,06,24,10,39,11.50
2009,06,24,10,40,14.20
2009,06,24,10,41,7.20
2009,06,24,10,42,15.00
2009,06,24,10,43,15.30
2009,06,24,10,44,11.60
2009,06,24,10,45,13.60
2009,06,24,10,46,12.90
2009,06,24,10,47,8.60
2009,06,24,10,48,13.90
2009,06,24,10,49,10.80
2009,06,24,10,50,16.40
2009,06,24,10,51,17.10
2009,06,24,10,52,10.00
2009,06,24,10,53,16.90
2009,06,24,10,54,16.30
2009,06,24,10,55,18.30
2009,06,24,10,56,15.20
2009,06,24,10,57,15.60
2009,06,24,10,58,12.80
2009,06,24,10,59,18.00
2009,06,24,11,00,9.30
2009,06,24,11,01,16.20
2009,06,24,11,02,15.90
2009,06,24,11,03,16.00
2009,06,24,11,04,13.60
2009,06,24,11,05,17.20
2009,06,24,11,06,15.10
2009,06,24,11,07,13.90
2009,06,24,11,08,5.70
2009,06,24,11,09,10.40
2009,06,24,11,10,11.80
2009,06,24,11,11,15.40
2009,06,24,11,12,10.80
2009,06,24,11,13,9.30
2009,06,24,11,14,15.20
2009,06,24,11,15,9.70
2009,06,24,11,16,15.20
2009,06,24,11,17,14.00
2009,06,24,11,18,17.20
2009,06,24,11,19,13.10
2009,06,24,11,20,14.90
2009,06,24,11,21,19.70
2009,06,24,11,22,14.60
2009,06,24,11,23,10.10
2009,06,24,11,24,12.70
2009,06,24,11,25,15.60
2009,06,24,11,26,10.30
2009,06,24,11,27,17.10
2009,06,24,11,28,11.50
2009,06,24,11,29,14.70
2009,06,24,11,30,11.40
2009,06,24,11,31,12.00
2009,06,24,11,32,16.00
2009,06,24,11,33,9.70
2009,06,24,11,34,12.20
2009,06,24,11,35,12.90
2009,06,24,11,36,15.40
2009,06,24,11,37,13.00
2009,06,24,11,38,16.80
2009,06,24,11,39,16.40
2009,06,24,11,40,9.90
2009,06,24,11,41,18.00
2009,06,24,11,42,17.30
2009,06,24,11,43,8.90
2009,06,24,11,44,14.90
2009,06,24,11,45,15.20
2009,06,24,11,46,13.60
2009,06,24,11,47,8.10
2009,06,24,11,48,13.90
2009,06,24,11,49,10.50
2009,06,24,11,50,12.40
2009,06,24,11,51,18.50
2009,06,24,11,52,14.60
2009,06,24,11,53,14.60
2009,06,24,11,54,16.70
2009,06,24,11,55,13.10
2009,06,24,11,56,8.70
2009,06,24,11,57,13.60
2009,06,24,11,58,11.30
2009,06,24,11,59,9.60
2009,06,24,12,00,10.30
2009,06,24,12,01,15.40
2009,06,24,12,02,11.40
2009,06,24,12,03,10.00
2009,06,24,12,04,15.30
2009,06,24,12,05,7.60
2009,06,24,12,06,14.30
2009,06,24,12,07,11.20
2009,06,24,12,08,17.20
2009,06,24,12,09,9.30
2009,06,24,12,10,6.30
2009,06,24,12,11,14.50
2009,06,24,12,12,18.60
2009,06,24,12,13,14.70
2009,06,24,12,14,8.60
2009,06,24,12,15,15.60
2009,06,24,12,16,11.00
2009,06,24,12,17,17.90
2009,06,24,12,18,15.00
2009,06,24,12,19,11.50
2009,06,24,12,20,12.70
2009,06,24,12,21,13.50
2009,06,24,12,22,14.10
2009,06,24,12,23,13.90
2009,06,24,12,24,15.40
2009,06,24,12,25,21.70
2009,06,24,12,26,20.20
2009,06,24,12,27,19.70
2009,06,24,12,28,16.70
2009,06,24,12,29,16.60
2009,06,24,12,30,17.30
2009,06,24,12,31,16.80
2009,06,24,12,32,22.30
2009,06,24,12,33,11.40
2009,06,24,12,34,10.90
2009,06,24,12,35,17.70
2009,06,24,12,36,8.50
2009,06,24,12,37,14.30
2009,06,24,12,38,14.20
2009,06,24,12,39,12.20
2009,06,24,12,40,9.90
2009,06,24,12,41,15.90
2009,06,24,12,42,17.60
2009,06,24,12,43,13.60
2009,06,24,12,44,12.30
2009,06,24,12,45,14.70
2009,06,24,12,46,16.20
2009,06,24,12,47,12.20
2009,06,24,12,48,17.40
2009,06,24,12,49,21.70
2009,06,24,12,50,14.40
2009,06,24,12,51,11.70
2009,06,24,12,52,12.00
2009,06,24,12,53,16.60
2009,06,24,12,54,18.00
2009,06,24,12,55,16.10
2009,06,24,12,56,13.60
2009,06,24,12,57,12.80
2009,06,24,12,58,14.10
2009,06,24,12,59,15.00
2009,06,24,13,00,20.00
2009,06,24,13,01,15.10
2009,06,24,13,02,22.80
2009,06,24,13,03,18.70
2009,06,24,13,04,15.20
2009,06,24,13,05,25.00
2009,06,24,13,06,22.80
2009,06,24,13,07,16.70
2009,06,24,13,08,12.20
2009,06,24,13,09,9.20
2009,06,24,13,10,10.70
2009,06,24,13,11,19.40
2009,06,24,13,12,21.50
2009,06,24,13,13,19.60
2009,06,24,13,14,22.80
2009,06,24,13,15,17.20
2009,06,24,13,16,22.10
2009,06,24,13,17,20.40
2009,06,24,13,18,14.90
2009,06,24,13,19,13.00
2009,06,24,13,20,20.20
2009,06,24,13,21,15.90
2009,06,24,13,22,13.00
2009,06,24,13,23,24.90
2009,06,24,13,24,20.00
2009,06,24,13,25,18.80
2009,06,24,13,26,23.70
2009,06,24,13,27,22.10
2009,06,24,13,28,18.00
2009,06,24,13,29,12.70
2009,06,24,13,30,17.20
2009,06,24,13,31,27.00
2009,06,24,13,32,18.00
2009,06,24,13,33,12.10
2009,06,24,13,34,20.70
2009,06,24,13,35,16.30
2009,06,24,13,36,19.10
2009,06,24,13,37,19.60
2009,06,24,13,38,24.60
2009,06,24,13,39,22.00
2009,06,24,13,40,30.60
2009,06,24,13,41,21.10
2009,06,24,13,42,20.80
2009,06,24,13,43,22.10
2009,06,24,13,44,18.50
2009,06,24,13,45,21.10
2009,06,24,13,46,14.70
2009,06,24,13,47,10.40
2009,06,24,13,48,17.80
2009,06,24,13,49,21.10
2009,06,24,13,50,17.50
2009,06,24,13,51,26.40
2009,06,24,13,52,24.10
2009,06,24,13,53,18.50
2009,06,24,13,54,16.40
2009,06,24,13,55,15.20
2009,06,24,13,56,15.80
2009,06,24,13,57,15.80
2009,06,24,13,58,12.60
2009,06,24,13,59,12.40
2009,06,24,14,00,22.70
2009,06,24,14,01,16.80
2009,06,24,14,02,16.40
2009,06,24,14,03,18.40
2009,06,24,14,04,21.50
2009,06,24,14,05,23.30
2009,06,24,14,06,21.30
2009,06,24,14,07,23.10
2009,06,24,14,08,21.00
2009,06,24,14,09,22.60
2009,06,24,14,10,20.80
2009,06,24,14,11,21.90
2009,06,24,14,12,26.60
2009,06,24,14,13,19.50
2009,06,24,14,14,18.40
2009,06,24,14,15,16.30
2009,06,24,14,16,19.40
2009,06,24,14,17,28.40
2009,06,24,14,18,18.80
2009,06,24,14,19,18.60
2009,06,24,14,20,18.50
2009,06,24,14,21,18.00
2009,06,24,14,22,20.90
2009,06,24,14,23,19.70
2009,06,24,14,24,19.10
2009,06,24,14,25,14.20
2009,06,24,14,26,17.90
2009,06,24,14,27,19.50
2009,06,24,14,28,19.40
2009,06,24,14,29,24.90
2009,06,24,14,30,29.30
2009,06,24,14,31,22.50
2009,06,24,14,32,19.50
2009,06,24,14,33,18.70
2009,06,24,14,34,23.60
2009,06,24,14,35,15.00
2009,06,24,14,36,15.90
2009,06,24,14,37,22.70
2009,06,24,14,38,20.80
2009,06,24,14,39,18.90
2009,06,24,14,40,18.40
2009,06,24,14,41,20.40
2009,06,24,14,42,17.80
2009,06,24,14,43,20.30
2009,06,24,14,44,22.30
2009,06,24,14,45,19.10
2009,06,24,14,46,14.90
2009,06,24,14,47,20.20
2009,06,24,14,48,17.00
2009,06,24,14,49,22.30
2009,06,24,14,50,21.80
2009,06,24,14,51,18.50
2009,06,24,14,52,17.60
2009,06,24,14,53,21.40
2009,06,24,14,54,22.00
2009,06,24,14,55,21.30
2009,06,24,14,56,21.40
2009,06,24,14,57,17.90
2009,06,24,14,58,16.50
2009,06,24,14,59,27.30
2009,06,24,15,00,24.80
2009,06,24,15,01,24.90
2009,06,24,15,02,26.10
2009,06,24,15,03,20.80
2009,06,24,15,04,19.80
2009,06,24,15,05,16.10
2009,06,24,15,06,25.20
2009,06,24,15,07,17.40
2009,06,24,15,08,22.00
2009,06,24,15,09,16.90
2009,06,24,15,10,26.50
2009,06,24,15,11,18.80
2009,06,24,15,12,20.70
2009,06,24,15,13,16.70
2009,06,24,15,14,19.60
2009,06,24,15,15,16.60
2009,06,24,15,16,11.20
2009,06,24,15,17,16.80
2009,06,24,15,18,20.20
2009,06,24,15,19,14.70
2009,06,24,15,20,21.50
2009,06,24,15,21,16.60
2009,06,24,15,22,15.90
2009,06,24,15,23,18.10
2009,06,24,15,24,14.40
2009,06,24,15,25,10.40
2009,06,24,15,26,9.70
2009,06,24,15,27,15.20
2009,06,24,15,28,15.40
2009,06,24,15,29,16.30
2009,06,24,15,30,16.10
2009,06,24,15,31,20.00
2009,06,24,15,32,21.40
2009,06,24,15,33,22.60
2009,06,24,15,34,18.40
2009,06,24,15,35,14.40
2009,06,24,15,36,16.00
2009,06,24,15,37,16.00
2009,06,24,15,38,19.00
2009,06,24,15,39,22.60
2009,06,24,15,40,11.40
2009,06,24,15,41,20.20
2009,06,24,15,42,21.50
2009,06,24,15,43,14.70
2009,06,24,15,44,12.00
2009,06,24,15,45,22.60
2009,06,24,15,46,18.50
2009,06,24,15,47,20.10
2009,06,24,15,48,17.50
2009,06,24,15,49,17.00
2009,06,24,15,50,19.40
2009,06,24,15,51,13.20
2009,06,24,15,52,11.40
2009,06,24,15,53,16.70
2009,06,24,15,54,8.50
2009,06,24,15,55,17.30
2009,06,24,15,56,17.60
2009,06,24,15,57,14.30
2009,06,24,15,58,10.90
2009,06,24,15,59,14.60
2009,06,24,16,00,16.60
2009,06,24,16,01,14.10
2009,06,24,16,02,9.20
2009,06,24,16,03,10.60
2009,06,24,16,04,12.60
2009,06,24,16,05,14.10
2009,06,24,16,06,15.30
2009,06,24,16,07,10.40
2009,06,24,16,08,12.60
2009,06,24,16,09,21.50
2009,06,24,16,10,13.80
2009,06,24,16,11,9.50
2009,06,24,16,12,9.80
2009,06,24,16,13,9.60
2009,06,24,16,14,13.70
2009,06,24,16,15,19.70
2009,06,24,16,16,14.40
2009,06,24,16,17,14.20
2009,06,24,16,18,20.90
2009,06,24,16,19,14.20
2009,06,24,16,20,10.10
2009,06,24,16,21,12.40
2009,06,24,16,22,15.20
2009,06,24,16,23,11.90
2009,06,24,16,24,8.80
2009,06,24,16,25,13.00
2009,06,24,16,26,13.00
2009,06,24,16,27,13.10
2009,06,24,16,28,13.00
2009,06,24,16,29,15.50
2009,06,24,16,30,12.40
2009,06,24,16,31,7.20
2009,06,24,16,32,13.60
2009,06,24,16,33,16.90
2009,06,24,16,34,21.60
2009,06,24,16,35,20.80
2009,06,24,16,36,16.20
2009,06,24,16,37,10.60
2009,06,24,16,38,16.80
2009,06,24,16,39,20.60
2009,06,24,16,40,20.00
2009,06,24,16,41,21.90
2009,06,24,16,42,20.70
2009,06,24,16,43,23.70
2009,06,24,16,44,18.50
2009,06,24,16,45,19.90
2009,06,24,16,46,19.10
2009,06,24,16,47,18.20
2009,06,24,16,48,22.00
2009,06,24,16,49,16.30
2009,06,24,16,50,13.80
2009,06,24,16,51,17.90
2009,06,24,16,52,17.10
2009,06,24,16,53,14.10
2009,06,24,16,54,21.40
2009,06,24,16,55,20.00
2009,06,24,16,56,17.50
2009,06,24,16,57,14.90
2009,06,24,16,58,17.60
2009,06,24,16,59,17.80
2009,06,24,17,00,16.10
2009,06,24,17,01,18.30
2009,06,24,17,02,19.10
2009,06,24,17,03,15.20
2009,06,24,17,04,11.80
2009,06,24,17,05,20.50
2009,06,24,17,06,14.20
2009,06,24,17,07,18.20
2009,06,24,17,08,18.70
2009,06,24,17,09,12.90
2009,06,24,17,10,15.00
2009,06,24,17,11,13.30
2009,06,24,17,12,18.30
2009,06,24,17,13,14.00
2009,06,24,17,14,20.10
2009,06,24,17,15,14.70
2009,06,24,17,16,12.10
2009,06,24,17,17,12.10
2009,06,24,17,18,1.10
2009,06,24,17,19,7.20
2009,06,24,17,20,13.00
2009,06,24,17,21,10.70
2009,06,24,17,22,10.00
2009,06,24,17,23,7.50
2009,06,24,17,24,6.90
2009,06,24,17,25,3.60
2009,06,24,17,26,5.30
2009,06,24,17,27,10.90
2009,06,24,17,28,11.60
2009,06,24,17,29,6.70
2009,06,24,17,30,7.60
2009,06,24,17,31,8.50
2009,06,24,17,32,8.00
2009,06,24,17,33,7.80
2009,06,24,17,34,9.30
2009,06,24,17,35,18.50
2009,06,24,17,36,14.40
2009,06,24,17,37,7.70
2009,06,24,17,38,9.00
2009,06,24,17,39,10.40
2009,06,24,17,40,9.00
2009,06,24,17,41,14.90
2009,06,24,17,42,16.50
2009,06,24,17,43,9.30
2009,06,24,17,44,5.70
2009,06,24,17,45,3.00
2009,06,24,17,46,11.70
2009,06,24,17,47,6.00